CARTOSAT-2D (41948 NORAD) Tracking and Keplerian Element Data

This shows tracking and keplerian element data for the satellite.

Feedback or suggestion? Click here.




ElementValue
Catalog41948
NameCARTOSAT-2D
Epoch Orbit7859
Epoch Day198.865899
Epoch Year2018
RAAN260.131
Inclination97.4428
Eccentricity0.000516
Argument of Perigee281.3608
Mean Anonmoly78.7046
Mean Motion15.19252302
Decay Rate3.63E-06
L11 41948U 17008A 18198.86589900 .00000363 00000-0 20454-4 0 9995
L22 41948 97.4428 260.1310 0005160 281.3608 78.7046 15.19252302 78596

Live tracking and technical data element details for CARTOSAT-2D (NORAD 41948). CARTOSAT-2D can be tracked NOW for your location showing map with azimuth and elevation plus other details from your city location.

Track the satellite on the map from your city or location and see movement details for azimuth, elevation, latitude, longitude, range, height, and movement on the map or in text.







IsCatalogInMostPopularTable: catalog: 41948, numindb: 79
Update: records affected: 1



GetName: 41948 CARTOSAT-2D

Hit Count: updated at: Thu, 19 Jul 2018 21:20:15 GMT